Location: *
(2.7500°S, 66.6833°W)
Time: 00:37:45
(UTC+00:00)

Intelsat 5-3 Rocket - Pass Details

Date: 24 May 2024
Orbit: 280 x 5330 km, 23.5° (Epoch: 13 June)

Event Time Altitude Azimuth Distance (km) Brightness Sun altitude
Rises 23:03:25 0° 323° (NW) 1,912 6.2 -10.2°
Reaches altitude 10° 23:05:24 10° 347° (NNW) 1,205 4.6 -10.7°
Maximum altitude 23:07:13 18° 35° (NE) 1,022 3.6 -11.1°
Enters shadow 23:09:11 12° 74° (ENE) 1,518 4.1 -11.6°
